Time,TemperatureF,DewpointF,PressureIn,WindDirection,WindDirectionDegrees,WindSpeedMPH,WindSpeedGustMPH,Humidity,HourlyPrecipIn,Conditions,Clouds,dailyrainin,SoftwareType,DateUTC
2013-06-30 00:00:00,80.2,43.2,30.04,SW,225,0.0,0.0,27,0.00,CLR,,0.00,WeatherDisplay:10.37,2013-06-30 07:00:00,
2013-06-30 00:05:00,80.2,43.2,30.04,SW,225,0.0,0.0,27,0.00,CLR,,0.00,WeatherDisplay:10.37,2013-06-30 07:05:00,
2013-06-30 00:10:00,80.2,43.2,30.04,SW,225,0.0,0.0,27,0.00,CLR,,0.00,WeatherDisplay:10.37,2013-06-30 07:10:00,
2013-06-30 00:20:00,79.6,43.6,30.04,SW,225,0.0,0.0,28,0.00,CLR,,0.00,WeatherDisplay:10.37,2013-06-30 07:20:00,
2013-06-30 00:30:00,79.5,43.5,30.04,SW,225,0.0,0.0,28,0.00,CLR,,0.00,WeatherDisplay:10.37,2013-06-30 07:30:00,
2013-06-30 00:35:00,79.3,43.4,30.04,SW,225,0.0,0.0,28,0.00,CLR,,0.00,WeatherDisplay:10.37,2013-06-30 07:35:00,
2013-06-30 00:40:00,79.0,43.1,30.04,SW,225,0.0,0.0,28,0.00,CLR,,0.00,WeatherDisplay:10.37,2013-06-30 07:40:00,
2013-06-30 00:50:00,78.6,43.7,30.04,SW,225,0.0,0.0,29,0.00,CLR,,0.00,WeatherDisplay:10.37,2013-06-30 07:50:00,
2013-06-30 00:55:00,78.6,43.7,30.04,SW,225,0.0,0.0,29,0.00,CLR,,0.00,WeatherDisplay:10.37,2013-06-30 07:55:00,
2013-06-30 01:00:00,78.4,43.5,30.04,SW,225,0.0,0.0,29,0.00,CLR,,0.00,WeatherDisplay:10.37,2013-06-30 08:00:00,
2013-06-30 01:05:00,78.1,43.2,30.04,SW,225,0.0,0.0,29,0.00,CLR,,0.00,WeatherDisplay:10.37,2013-06-30 08:05:00,
2013-06-30 01:10:00,78.1,44.1,30.04,SW,225,0.0,0.0,30,0.00,CLR,,0.00,WeatherDisplay:10.37,2013-06-30 08:10:00,
2013-06-30 01:20:00,77.7,42.9,30.04,SW,225,0.0,0.0,29,0.00,CLR,,0.00,WeatherDisplay:10.37,2013-06-30 08:20:00,
2013-06-30 01:25:00,77.5,42.8,30.04,SW,225,0.0,0.0,29,0.00,CLR,,0.00,WeatherDisplay:10.37,2013-06-30 08:25:00,
2013-06-30 01:30:00,77.4,43.5,30.03,SW,225,0.0,0.0,30,0.00,CLR,,0.00,WeatherDisplay:10.37,2013-06-30 08:30:00,
2013-06-30 01:35:00,77.2,43.3,30.04,SW,225,0.0,0.0,30,0.00,CLR,,0.00,WeatherDisplay:10.37,2013-06-30 08:35:00,
2013-06-30 01:40:00,77.0,43.2,30.03,SW,225,0.0,0.0,30,0.00,CLR,,0.00,WeatherDisplay:10.37,2013-06-30 08:40:00,
2013-06-30 01:50:00,76.8,43.0,30.03,SW,225,0.0,0.0,30,0.00,CLR,,0.00,WeatherDisplay:10.37,2013-06-30 08:50:00,
2013-06-30 01:55:00,76.6,42.9,30.03,SW,225,0.0,0.0,30,0.00,CLR,,0.00,WeatherDisplay:10.37,2013-06-30 08:55:00,
2013-06-30 02:00:00,76.5,42.7,30.03,SW,217,0.0,0.0,30,0.00,CLR,,0.00,WeatherDisplay:10.37,2013-06-30 09:00:00,
2013-06-30 02:05:00,76.5,42.7,30.03,SSW,206,0.0,0.0,30,0.00,CLR,,0.00,WeatherDisplay:10.37,2013-06-30 09:05:00,
2013-06-30 02:10:00,76.5,42.7,30.03,SSW,202,0.0,0.0,30,0.00,CLR,,0.00,WeatherDisplay:10.37,2013-06-30 09:10:00,
2013-06-30 02:15:00,76.1,42.4,30.03,SSW,202,0.0,0.0,30,0.00,CLR,,0.00,WeatherDisplay:10.37,2013-06-30 09:15:00,
2013-06-30 02:20:00,75.9,42.3,30.03,SSW,202,0.0,0.0,30,0.00,CLR,,0.00,WeatherDisplay:10.37,2013-06-30 09:20:00,
2013-06-30 02:25:00,75.9,42.2,30.03,SSW,202,0.0,0.0,30,0.00,CLR,,0.00,WeatherDisplay:10.37,2013-06-30 09:25:00,
2013-06-30 02:30:00,75.9,42.2,30.03,SSW,202,0.0,0.0,30,0.00,CLR,,0.00,WeatherDisplay:10.37,2013-06-30 09:30:00,
2013-06-30 02:35:00,75.7,42.1,30.03,SSW,202,0.0,0.0,30,0.00,CLR,,0.00,WeatherDisplay:10.37,2013-06-30 09:35:00,
2013-06-30 02:40:00,75.7,42.1,30.03,SSW,202,0.0,0.0,30,0.00,CLR,,0.00,WeatherDisplay:10.37,2013-06-30 09:40:00,
2013-06-30 02:50:00,75.4,41.8,30.03,SSW,202,0.0,0.0,30,0.00,CLR,,0.00,WeatherDisplay:10.37,2013-06-30 09:50:00,
2013-06-30 02:55:00,75.2,41.6,30.04,SSW,202,0.0,0.0,30,0.00,CLR,,0.00,WeatherDisplay:10.37,2013-06-30 09:55:00,
2013-06-30 03:00:00,75.0,42.3,30.04,SSW,202,0.0,0.0,31,0.00,CLR,,0.00,WeatherDisplay:10.37,2013-06-30 10:00:00,
2013-06-30 03:05:00,75.0,42.3,30.04,SSW,202,0.0,0.0,31,0.00,CLR,,0.00,WeatherDisplay:10.37,2013-06-30 10:05:00,
2013-06-30 03:10:00,74.8,42.2,30.03,SSW,202,0.0,0.0,31,0.00,CLR,,0.00,WeatherDisplay:10.37,2013-06-30 10:10:00,
2013-06-30 03:15:00,74.7,42.0,30.03,SSW,202,0.0,0.0,31,0.00,CLR,,0.00,WeatherDisplay:10.37,2013-06-30 10:15:00,
2013-06-30 03:20:00,74.7,42.0,30.04,SSW,202,0.0,0.0,31,0.00,CLR,,0.00,WeatherDisplay:10.37,2013-06-30 10:20:00,
2013-06-30 03:25:00,74.7,42.0,30.04,SSW,202,0.0,0.0,31,0.00,CLR,,0.00,WeatherDisplay:10.37,2013-06-30 10:25:00,
2013-06-30 03:30:00,74.5,41.9,30.04,SSW,202,0.0,0.0,31,0.00,CLR,,0.00,WeatherDisplay:10.37,2013-06-30 10:30:00,
2013-06-30 03:35:00,74.5,41.9,30.04,SSW,202,0.0,0.0,31,0.00,CLR,,0.00,WeatherDisplay:10.37,2013-06-30 10:35:00,
2013-06-30 03:40:00,74.5,41.9,30.04,SSW,202,0.0,0.0,31,0.00,CLR,,0.00,WeatherDisplay:10.37,2013-06-30 10:40:00,
2013-06-30 03:45:00,74.5,41.9,30.04,SSW,202,0.0,0.0,31,0.00,CLR,,0.00,WeatherDisplay:10.37,2013-06-30 10:45:00,
2013-06-30 03:50:00,74.7,42.0,30.04,SSW,202,0.0,0.0,31,0.00,CLR,,0.00,WeatherDisplay:10.37,2013-06-30 10:50:00,
2013-06-30 03:55:00,74.8,42.2,30.04,SSW,202,0.0,0.0,31,0.00,CLR,,0.00,WeatherDisplay:10.37,2013-06-30 10:55:00,
2013-06-30 04:00:00,74.8,42.2,30.04,SSW,202,0.0,0.0,31,0.00,CLR,,0.00,WeatherDisplay:10.37,2013-06-30 11:00:00,
2013-06-30 04:05:00,74.8,42.2,30.04,SSW,202,0.0,0.0,31,0.00,CLR,,0.00,WeatherDisplay:10.37,2013-06-30 11:05:00,
2013-06-30 04:10:00,74.8,42.2,30.04,SSW,202,0.0,0.0,31,0.00,CLR,,0.00,WeatherDisplay:10.37,2013-06-30 11:10:00,
2013-06-30 04:15:00,74.8,42.2,30.04,SSW,202,0.0,0.0,31,0.00,CLR,,0.00,WeatherDisplay:10.37,2013-06-30 11:15:00,
2013-06-30 04:20:00,74.8,42.2,30.04,SSW,202,0.0,0.0,31,0.00,CLR,,0.00,WeatherDisplay:10.37,2013-06-30 11:20:00,
2013-06-30 04:25:00,74.8,42.2,30.04,SSW,202,0.0,0.0,31,0.00,CLR,,0.00,WeatherDisplay:10.37,2013-06-30 11:25:00,
2013-06-30 04:30:00,74.8,42.2,30.04,SSW,202,0.0,0.0,31,0.00,CLR,,0.00,WeatherDisplay:10.37,2013-06-30 11:30:00,
2013-06-30 04:40:00,75.0,41.5,30.04,SSW,202,0.0,0.0,30,0.00,CLR,,0.00,WeatherDisplay:10.37,2013-06-30 11:40:00,
2013-06-30 04:45:00,75.0,41.5,30.04,SSW,202,0.0,0.0,30,0.00,CLR,,0.00,WeatherDisplay:10.37,2013-06-30 11:45:00,
2013-06-30 04:50:00,75.0,41.5,30.04,SSW,202,0.0,0.0,30,0.00,CLR,,0.00,WeatherDisplay:10.37,2013-06-30 11:50:00,
2013-06-30 04:55:00,75.0,41.5,30.04,SSW,202,0.0,0.0,30,0.00,CLR,,0.00,WeatherDisplay:10.37,2013-06-30 11:55:00,
2013-06-30 05:00:00,75.2,41.7,30.04,SSW,202,0.0,0.0,30,0.00,CLR,,0.00,WeatherDisplay:10.37,2013-06-30 12:00:00,
2013-06-30 05:05:00,75.4,41.8,30.05,SSW,202,0.0,0.0,30,0.00,CLR,,0.00,WeatherDisplay:10.37,2013-06-30 12:05:00,
2013-06-30 05:10:00,75.4,41.8,30.05,SSW,202,0.0,0.0,30,0.00,CLR,,0.00,WeatherDisplay:10.37,2013-06-30 12:10:00,
2013-06-30 05:15:00,75.4,41.8,30.04,SSW,202,0.0,0.0,30,0.00,CLR,,0.00,WeatherDisplay:10.37,2013-06-30 12:15:00,
2013-06-30 05:20:00,75.5,41.9,30.04,SSW,202,0.0,0.0,30,0.00,CLR,,0.00,WeatherDisplay:10.37,2013-06-30 12:20:00,
2013-06-30 05:25:00,75.6,41.9,30.05,SSW,202,0.0,0.0,30,0.00,CLR,,0.00,WeatherDisplay:10.37,2013-06-30 12:25:00,
2013-06-30 05:30:00,75.6,41.9,30.05,SSW,202,0.0,0.0,30,0.00,CLR,,0.00,WeatherDisplay:10.37,2013-06-30 12:30:00,
2013-06-30 05:35:00,75.7,42.1,30.05,SSW,202,0.0,0.0,30,0.00,CLR,,0.00,WeatherDisplay:10.37,2013-06-30 12:35:00,
2013-06-30 05:40:00,75.9,42.2,30.04,SSW,202,0.0,0.0,30,0.00,CLR,,0.00,WeatherDisplay:10.37,2013-06-30 12:40:00,
2013-06-30 05:50:00,76.3,42.6,30.05,SSW,202,0.0,0.0,30,0.00,CLR,,0.00,WeatherDisplay:10.37,2013-06-30 12:50:00,
2013-06-30 05:55:00,76.6,42.0,30.05,SSW,198,0.0,0.0,29,0.00,CLR,,0.00,WeatherDisplay:10.37,2013-06-30 12:55:00,
2013-06-30 06:00:00,76.8,42.1,30.05,SSW,198,0.0,0.0,29,0.00,CLR,,0.00,WeatherDisplay:10.37,2013-06-30 13:00:00,
2013-06-30 06:05:00,77.1,42.4,30.05,SSW,202,0.0,0.0,29,0.00,CLR,,0.00,WeatherDisplay:10.37,2013-06-30 13:05:00,
2013-06-30 06:10:00,77.4,42.6,30.05,SSW,202,0.0,0.0,29,0.00,CLR,,0.00,WeatherDisplay:10.37,2013-06-30 13:10:00,
2013-06-30 06:15:00,77.5,42.8,30.05,SSW,202,0.0,0.0,29,0.00,CLR,,0.00,WeatherDisplay:10.37,2013-06-30 13:15:00,
2013-06-30 06:20:00,77.7,42.9,30.05,SSW,202,0.0,0.0,29,0.00,CLR,,0.00,WeatherDisplay:10.37,2013-06-30 13:20:00,
2013-06-30 06:25:00,77.7,42.9,30.05,SSW,202,0.0,0.0,29,0.00,CLR,,0.00,WeatherDisplay:10.37,2013-06-30 13:25:00,
2013-06-30 06:30:00,77.7,42.9,30.05,SSW,202,0.0,0.0,29,0.00,CLR,,0.00,WeatherDisplay:10.37,2013-06-30 13:30:00,
2013-06-30 06:40:00,78.1,43.2,30.05,SSW,202,0.0,0.0,29,0.00,CLR,,0.00,WeatherDisplay:10.37,2013-06-30 13:40:00,
2013-06-30 06:50:00,78.1,44.1,30.05,SSW,202,0.0,0.0,30,0.00,CLR,,0.00,WeatherDisplay:10.37,2013-06-30 13:50:00,
2013-06-30 06:55:00,78.1,44.1,30.05,SSW,202,0.0,0.0,30,0.00,CLR,,0.00,WeatherDisplay:10.37,2013-06-30 13:55:00,
2013-06-30 07:00:00,78.1,44.1,30.05,SSW,202,0.0,0.0,30,0.00,CLR,,0.00,WeatherDisplay:10.37,2013-06-30 14:00:00,
2013-06-30 07:05:00,78.3,44.3,30.05,SSW,202,0.0,0.0,30,0.00,CLR,,0.00,WeatherDisplay:10.37,2013-06-30 14:05:00,
2013-06-30 07:10:00,78.4,44.4,30.05,SSW,202,0.0,0.0,30,0.00,CLR,,0.00,WeatherDisplay:10.37,2013-06-30 14:10:00,
2013-06-30 07:15:00,78.6,45.4,30.06,SSW,202,0.0,0.0,31,0.00,CLR,,0.00,WeatherDisplay:10.37,2013-06-30 14:15:00,
2013-06-30 07:20:00,78.6,44.6,30.06,SSW,202,0.0,0.0,30,0.00,CLR,,0.00,WeatherDisplay:10.37,2013-06-30 14:20:00,
2013-06-30 07:30:00,79.6,45.5,30.05,SSW,202,0.0,0.0,30,0.00,CLR,,0.00,WeatherDisplay:10.37,2013-06-30 14:30:00,
2013-06-30 07:35:00,80.2,45.1,30.05,SSW,202,0.0,0.0,29,0.00,CLR,,0.00,WeatherDisplay:10.37,2013-06-30 14:35:00,
2013-06-30 07:40:00,81.0,44.8,30.06,SSW,202,0.0,0.0,28,0.00,CLR,,0.00,WeatherDisplay:10.37,2013-06-30 14:40:00,
2013-06-30 07:45:00,81.9,45.6,30.05,SSW,199,0.0,0.0,28,0.00,CLR,,0.00,WeatherDisplay:10.37,2013-06-30 14:45:00,
2013-06-30 07:50:00,82.9,46.5,30.05,South,187,0.0,0.0,28,0.00,CLR,,0.00,WeatherDisplay:10.37,2013-06-30 14:50:00,
2013-06-30 07:55:00,83.7,46.1,30.06,SSE,158,0.0,0.0,27,0.00,CLR,,0.00,WeatherDisplay:10.37,2013-06-30 14:55:00,
2013-06-30 08:00:00,84.2,46.6,30.06,SE,136,0.0,0.0,27,0.00,CLR,,0.00,WeatherDisplay:10.37,2013-06-30 15:00:00,
2013-06-30 08:05:00,84.7,46.0,30.05,SE,135,0.0,0.0,26,0.00,CLR,,0.00,WeatherDisplay:10.37,2013-06-30 15:05:00,
2013-06-30 08:10:00,85.1,46.4,30.05,SE,141,0.0,0.0,26,0.00,CLR,,0.00,WeatherDisplay:10.37,2013-06-30 15:10:00,
2013-06-30 08:20:00,86.5,46.5,30.06,ENE,70,3.0,8.0,25,0.00,CLR,,0.00,WeatherDisplay:10.37,2013-06-30 15:20:00,
2013-06-30 08:25:00,86.9,46.8,30.05,East,100,0.0,8.0,25,0.00,CLR,,0.00,WeatherDisplay:10.37,2013-06-30 15:25:00,
2013-06-30 08:30:00,87.6,46.3,30.05,SE,126,0.0,0.0,24,0.00,CLR,,0.00,WeatherDisplay:10.37,2013-06-30 15:30:00,
2013-06-30 08:35:00,88.0,46.7,30.05,SSE,164,0.0,0.0,24,0.00,CLR,,0.00,WeatherDisplay:10.37,2013-06-30 15:35:00,
2013-06-30 08:40:00,88.4,47.0,30.05,SE,135,0.0,0.0,24,0.00,CLR,,0.00,WeatherDisplay:10.37,2013-06-30 15:40:00,
2013-06-30 08:45:00,88.8,47.4,30.05,SSE,162,0.0,0.0,24,0.00,CLR,,0.00,WeatherDisplay:10.37,2013-06-30 15:45:00,
2013-06-30 08:50:00,89.2,47.7,30.05,ESE,122,0.0,0.0,24,0.00,CLR,,0.00,WeatherDisplay:10.37,2013-06-30 15:50:00,
2013-06-30 08:55:00,89.2,47.7,30.05,ESE,109,0.0,0.0,24,0.00,CLR,,0.00,WeatherDisplay:10.37,2013-06-30 15:55:00,
2013-06-30 09:00:00,89.4,47.9,30.05,ENE,77,0.0,0.0,24,0.00,CLR,,0.00,WeatherDisplay:10.37,2013-06-30 16:00:00,
2013-06-30 09:05:00,89.8,48.2,30.05,ENE,73,0.0,0.0,24,0.00,CLR,,0.00,WeatherDisplay:10.37,2013-06-30 16:05:00,
2013-06-30 09:10:00,90.1,46.2,30.05,East,92,0.0,0.0,22,0.00,CLR,,0.00,WeatherDisplay:10.37,2013-06-30 16:10:00,
2013-06-30 09:15:00,90.4,47.6,30.05,East,97,0.0,0.0,23,0.00,CLR,,0.00,WeatherDisplay:10.37,2013-06-30 16:15:00,
2013-06-30 09:20:00,90.9,47.9,30.05,ESE,103,0.0,0.0,23,0.00,CLR,,0.00,WeatherDisplay:10.37,2013-06-30 16:20:00,
2013-06-30 09:25:00,91.2,47.1,30.05,East,95,8.0,8.0,22,0.00,CLR,,0.00,WeatherDisplay:10.37,2013-06-30 16:25:00,
2013-06-30 09:30:00,91.8,47.5,30.05,NE,55,0.0,8.0,22,0.00,CLR,,0.00,WeatherDisplay:10.37,2013-06-30 16:30:00,
2013-06-30 09:35:00,92.1,47.8,30.05,ENE,59,0.0,0.0,22,0.00,CLR,,0.00,WeatherDisplay:10.37,2013-06-30 16:35:00,
2013-06-30 09:40:00,92.5,48.1,30.05,ESE,106,3.0,4.0,22,0.00,CLR,,0.00,WeatherDisplay:10.37,2013-06-30 16:40:00,
2013-06-30 09:45:00,92.9,49.7,30.05,East,87,0.0,3.0,23,0.00,CLR,,0.00,WeatherDisplay:10.37,2013-06-30 16:45:00,
2013-06-30 09:50:00,93.4,48.8,30.05,ENE,71,0.0,0.0,22,0.00,CLR,,0.00,WeatherDisplay:10.37,2013-06-30 16:50:00,
2013-06-30 10:00:00,93.9,48.1,30.05,ENE,73,0.0,0.0,21,0.00,CLR,,0.00,WeatherDisplay:10.37,2013-06-30 17:00:00,
2013-06-30 10:05:00,94.0,48.1,30.05,East,79,0.0,0.0,21,0.00,CLR,,0.00,WeatherDisplay:10.37,2013-06-30 17:05:00,
2013-06-30 10:10:00,94.5,48.5,30.05,East,101,0.0,0.0,21,0.00,CLR,,0.00,WeatherDisplay:10.37,2013-06-30 17:10:00,
2013-06-30 10:15:00,94.8,48.8,30.05,ENE,78,0.0,0.0,21,0.00,CLR,,0.00,WeatherDisplay:10.37,2013-06-30 17:15:00,
2013-06-30 10:20:00,95.0,48.9,30.05,ENE,60,5.0,6.0,21,0.00,CLR,,0.00,WeatherDisplay:10.37,2013-06-30 17:20:00,
2013-06-30 10:25:00,95.5,49.4,30.05,NE,53,0.0,6.0,21,0.00,CLR,,0.00,WeatherDisplay:10.37,2013-06-30 17:25:00,
2013-06-30 10:30:00,95.7,48.2,30.05,ENE,57,0.0,0.0,20,0.00,CLR,,0.00,WeatherDisplay:10.37,2013-06-30 17:30:00,
2013-06-30 10:35:00,96.0,48.5,30.05,ENE,62,0.0,0.0,20,0.00,CLR,,0.00,WeatherDisplay:10.37,2013-06-30 17:35:00,
2013-06-30 10:40:00,96.3,48.7,30.04,NE,51,0.0,6.0,20,0.00,CLR,,0.00,WeatherDisplay:10.37,2013-06-30 17:40:00,
2013-06-30 10:50:00,97.2,49.4,30.04,NW,310,0.0,6.0,20,0.00,CLR,,0.00,WeatherDisplay:10.37,2013-06-30 17:50:00,
2013-06-30 11:00:00,98.4,49.1,30.04,NNE,30,1.0,7.0,19,0.00,CLR,,0.00,WeatherDisplay:10.37,2013-06-30 18:00:00,
2013-06-30 11:05:00,98.8,49.4,30.04,ENE,59,7.0,7.0,19,0.00,CLR,,0.00,WeatherDisplay:10.37,2013-06-30 18:05:00,
2013-06-30 11:10:00,99.1,49.6,30.04,ENE,61,0.0,0.0,19,0.00,CLR,,0.00,WeatherDisplay:10.37,2013-06-30 18:10:00,
2013-06-30 11:15:00,99.7,50.1,30.04,ENE,59,1.0,3.0,19,0.00,CLR,,0.00,WeatherDisplay:10.37,2013-06-30 18:15:00,
2013-06-30 11:20:00,100.6,50.8,30.04,ENE,58,0.0,3.0,19,0.00,CLR,,0.00,WeatherDisplay:10.37,2013-06-30 18:20:00,
2013-06-30 11:25:00,101.1,51.3,30.03,NE,44,0.0,0.0,19,0.00,CLR,,0.00,WeatherDisplay:10.37,2013-06-30 18:25:00,
2013-06-30 11:30:00,101.8,50.3,30.04,North,3,0.0,0.0,18,0.00,CLR,,0.00,WeatherDisplay:10.37,2013-06-30 18:30:00,
2013-06-30 11:35:00,102.0,50.5,30.04,NNW,341,2.0,3.0,18,0.00,CLR,,0.00,WeatherDisplay:10.37,2013-06-30 18:35:00,
2013-06-30 11:40:00,102.4,50.8,30.04,NE,37,7.0,7.0,18,0.00,CLR,,0.00,WeatherDisplay:10.37,2013-06-30 18:40:00,
2013-06-30 11:45:00,102.7,51.1,30.03,NE,34,0.0,0.0,18,0.00,CLR,,0.00,WeatherDisplay:10.37,2013-06-30 18:45:00,
2013-06-30 11:50:00,102.9,51.3,30.04,NW,306,0.0,0.0,18,0.00,CLR,,0.00,WeatherDisplay:10.37,2013-06-30 18:50:00,
2013-06-30 12:00:00,102.9,49.7,30.03,North,8,0.0,0.0,17,0.00,CLR,,0.00,WeatherDisplay:10.37,2013-06-30 19:00:00,
2013-06-30 12:05:00,102.9,49.7,30.03,North,11,0.0,0.0,17,0.00,CLR,,0.00,WeatherDisplay:10.37,2013-06-30 19:05:00,
2013-06-30 12:10:00,102.7,49.5,30.02,NE,42,0.0,0.0,17,0.00,CLR,,0.00,WeatherDisplay:10.37,2013-06-30 19:10:00,
2013-06-30 12:15:00,102.0,50.5,30.02,NE,56,0.0,0.0,18,0.00,CLR,,0.00,WeatherDisplay:10.37,2013-06-30 19:15:00,
2013-06-30 12:20:00,101.8,50.4,30.02,NE,42,0.0,0.0,18,0.00,CLR,,0.00,WeatherDisplay:10.37,2013-06-30 19:20:00,
2013-06-30 12:25:00,101.6,50.2,30.02,NE,40,0.0,0.0,18,0.00,CLR,,0.00,WeatherDisplay:10.37,2013-06-30 19:25:00,
2013-06-30 12:30:00,101.3,49.9,30.02,NE,45,0.0,0.0,18,0.00,CLR,,0.00,WeatherDisplay:10.37,2013-06-30 19:30:00,
2013-06-30 12:35:00,101.1,49.8,30.02,NE,45,0.0,0.0,18,0.00,CLR,,0.00,WeatherDisplay:10.37,2013-06-30 19:35:00,
2013-06-30 12:40:00,100.9,49.6,30.02,NE,37,0.0,0.0,18,0.00,CLR,,0.00,WeatherDisplay:10.37,2013-06-30 19:40:00,
2013-06-30 12:45:00,100.4,49.2,30.02,NNE,24,0.0,0.0,18,0.00,CLR,,0.00,WeatherDisplay:10.37,2013-06-30 19:45:00,
2013-06-30 12:50:00,100.2,49.1,30.02,North,4,0.0,0.0,18,0.00,CLR,,0.00,WeatherDisplay:10.37,2013-06-30 19:50:00,
2013-06-30 12:55:00,100.0,48.9,30.02,North,5,0.0,0.0,18,0.00,CLR,,0.00,WeatherDisplay:10.37,2013-06-30 19:55:00,
2013-06-30 13:00:00,99.5,48.5,30.02,NE,53,7.0,8.0,18,0.00,CLR,,0.00,WeatherDisplay:10.37,2013-06-30 20:00:00,
2013-06-30 13:05:00,99.1,48.2,30.02,NE,54,0.0,8.0,18,0.00,CLR,,0.00,WeatherDisplay:10.37,2013-06-30 20:05:00,
2013-06-30 13:10:00,98.6,47.8,30.02,NE,46,1.0,1.0,18,0.00,CLR,,0.00,WeatherDisplay:10.37,2013-06-30 20:10:00,
2013-06-30 13:15:00,98.1,48.8,30.02,NNE,32,0.0,0.0,19,0.00,CLR,,0.00,WeatherDisplay:10.37,2013-06-30 20:15:00,
2013-06-30 13:20:00,97.7,48.5,30.02,NNE,16,0.0,0.0,19,0.00,CLR,,0.00,WeatherDisplay:10.37,2013-06-30 20:20:00,
2013-06-30 13:25:00,97.5,48.3,30.02,NNE,26,0.0,0.0,19,0.00,CLR,,0.00,WeatherDisplay:10.37,2013-06-30 20:25:00,
2013-06-30 13:30:00,97.5,48.3,30.01,NE,48,7.0,8.0,19,0.00,CLR,,0.00,WeatherDisplay:10.37,2013-06-30 20:30:00,
2013-06-30 13:40:00,97.3,48.2,30.00,ESE,114,0.0,0.0,19,0.00,CLR,,0.00,WeatherDisplay:10.37,2013-06-30 20:40:00,
2013-06-30 13:45:00,97.5,48.3,30.00,ENE,68,0.0,0.0,19,0.00,CLR,,0.00,WeatherDisplay:10.37,2013-06-30 20:45:00,
2013-06-30 13:50:00,97.7,48.5,30.00,NE,49,6.0,8.0,19,0.00,CLR,,0.00,WeatherDisplay:10.37,2013-06-30 20:50:00,
2013-06-30 13:55:00,97.9,48.6,29.99,NE,49,0.0,3.0,19,0.00,CLR,,0.00,WeatherDisplay:10.37,2013-06-30 20:55:00,
2013-06-30 14:00:00,98.4,49.0,29.99,NW,321,3.0,12.0,19,0.00,CLR,,0.00,WeatherDisplay:10.37,2013-06-30 21:00:00,
2013-06-30 14:05:00,98.8,49.4,29.99,WSW,248,3.0,12.0,19,0.00,CLR,,0.00,WeatherDisplay:10.37,2013-06-30 21:05:00,
2013-06-30 14:10:00,99.3,49.8,29.99,WSW,248,0.0,6.0,19,0.00,CLR,,0.00,WeatherDisplay:10.37,2013-06-30 21:10:00,
2013-06-30 14:15:00,99.7,50.1,29.99,WSW,257,0.0,0.0,19,0.00,CLR,,0.00,WeatherDisplay:10.37,2013-06-30 21:15:00,
2013-06-30 14:20:00,99.9,50.2,29.98,West,268,0.0,0.0,19,0.00,CLR,,0.00,WeatherDisplay:10.37,2013-06-30 21:20:00,
2013-06-30 14:25:00,100.2,50.5,29.98,WSW,248,0.0,0.0,19,0.00,CLR,,0.00,WeatherDisplay:10.37,2013-06-30 21:25:00,
2013-06-30 14:35:00,101.1,49.8,29.97,WSW,251,0.0,0.0,18,0.00,CLR,,0.00,WeatherDisplay:10.37,2013-06-30 21:35:00,
2013-06-30 14:40:00,101.3,49.9,29.97,WSW,248,5.0,8.0,18,0.00,CLR,,0.00,WeatherDisplay:10.37,2013-06-30 21:40:00,
2013-06-30 14:45:00,101.8,50.3,29.97,WSW,248,0.0,8.0,18,0.00,CLR,,0.00,WeatherDisplay:10.37,2013-06-30 21:45:00,
2013-06-30 14:50:00,102.4,52.3,29.97,WSW,248,0.0,0.0,19,0.00,CLR,,0.00,WeatherDisplay:10.37,2013-06-30 21:50:00,
2013-06-30 15:00:00,102.9,52.7,29.97,WSW,248,0.0,0.0,19,0.00,CLR,,0.00,WeatherDisplay:10.37,2013-06-30 22:00:00,
2013-06-30 15:05:00,103.1,52.9,29.97,WSW,248,0.0,0.0,19,0.00,CLR,,0.00,WeatherDisplay:10.37,2013-06-30 22:05:00,
2013-06-30 15:10:00,103.5,51.7,29.96,WSW,248,0.0,6.0,18,0.00,CLR,,0.00,WeatherDisplay:10.37,2013-06-30 22:10:00,
2013-06-30 15:15:00,103.8,52.0,29.96,WSW,248,5.0,7.0,18,0.00,CLR,,0.00,WeatherDisplay:10.37,2013-06-30 22:15:00,
2013-06-30 15:20:00,103.8,52.0,29.96,WSW,248,7.0,8.0,18,0.00,CLR,,0.00,WeatherDisplay:10.37,2013-06-30 22:20:00,
2013-06-30 15:25:00,104.2,52.3,29.96,WSW,249,0.0,8.0,18,0.00,CLR,,0.00,WeatherDisplay:10.37,2013-06-30 22:25:00,
2013-06-30 15:30:00,104.5,52.6,29.95,West,261,0.0,6.0,18,0.00,CLR,,0.00,WeatherDisplay:10.37,2013-06-30 22:30:00,
2013-06-30 15:35:00,104.2,52.3,29.95,West,276,0.0,0.0,18,0.00,CLR,,0.00,WeatherDisplay:10.37,2013-06-30 22:35:00,
2013-06-30 15:40:00,103.7,51.9,29.95,ENE,65,0.0,0.0,18,0.00,CLR,,0.00,WeatherDisplay:10.37,2013-06-30 22:40:00,
2013-06-30 15:45:00,103.2,51.5,29.95,NNW,335,0.0,0.0,18,0.00,CLR,,0.00,WeatherDisplay:10.37,2013-06-30 22:45:00,
2013-06-30 15:50:00,102.7,51.1,29.94,NW,306,0.0,0.0,18,0.00,CLR,,0.00,WeatherDisplay:10.37,2013-06-30 22:50:00,
2013-06-30 15:55:00,102.1,52.1,29.94,West,276,0.0,0.0,19,0.00,CLR,,0.00,WeatherDisplay:10.37,2013-06-30 22:55:00,
2013-06-30 16:00:00,101.8,51.8,29.94,WNW,295,0.0,0.0,19,0.00,CLR,,0.00,WeatherDisplay:10.37,2013-06-30 23:00:00,
2013-06-30 16:05:00,101.5,51.6,29.94,North,356,0.0,0.0,19,0.00,CLR,,0.00,WeatherDisplay:10.37,2013-06-30 23:05:00,
2013-06-30 16:15:00,100.7,50.9,29.94,WNW,291,0.0,0.0,19,0.00,CLR,,0.00,WeatherDisplay:10.37,2013-06-30 23:15:00,
2013-06-30 16:25:00,99.9,50.3,29.94,NW,308,0.0,0.0,19,0.00,CLR,,0.00,WeatherDisplay:10.37,2013-06-30 23:25:00,
2013-06-30 16:30:00,99.5,53.9,29.94,WNW,288,0.0,0.0,22,0.00,CLR,,0.00,WeatherDisplay:10.37,2013-06-30 23:30:00,
2013-06-30 16:35:00,98.4,54.2,29.94,WNW,299,5.0,5.0,23,0.00,CLR,,0.00,WeatherDisplay:10.37,2013-06-30 23:35:00,
2013-06-30 16:40:00,97.6,51.1,29.94,WNW,295,13.0,13.0,21,0.00,CLR,,0.00,WeatherDisplay:10.37,2013-06-30 23:40:00,
2013-06-30 16:45:00,96.6,51.5,29.94,WNW,292,3.0,6.0,22,0.00,CLR,,0.00,WeatherDisplay:10.37,2013-06-30 23:45:00,
2013-06-30 16:50:00,96.1,52.3,29.94,West,262,13.0,14.0,23,0.00,CLR,,0.00,WeatherDisplay:10.37,2013-06-30 23:50:00,
2013-06-30 16:55:00,95.5,51.8,29.94,SW,236,0.0,14.0,23,0.00,CLR,,0.00,WeatherDisplay:10.37,2013-06-30 23:55:00,
2013-06-30 17:00:00,94.3,51.9,29.94,SW,230,0.0,0.0,24,0.00,CLR,,0.00,WeatherDisplay:10.37,2013-07-01 00:00:00,
2013-06-30 17:05:00,93.7,51.5,29.95,WSW,247,7.0,7.0,24,0.00,CLR,,0.00,WeatherDisplay:10.37,2013-07-01 00:05:00,
2013-06-30 17:10:00,92.9,54.0,29.95,West,271,1.0,7.0,27,0.00,CLR,,0.00,WeatherDisplay:10.37,2013-07-01 00:10:00,
2013-06-30 17:15:00,92.1,53.3,29.95,West,263,9.0,10.0,27,0.00,CLR,,0.00,WeatherDisplay:10.37,2013-07-01 00:15:00,
2013-06-30 17:20:00,91.2,53.6,29.95,WSW,251,10.0,12.0,28,0.00,CLR,,0.00,WeatherDisplay:10.37,2013-07-01 00:20:00,
2013-06-30 17:25:00,90.5,52.9,29.95,WSW,238,0.0,12.0,28,0.00,CLR,,0.00,WeatherDisplay:10.37,2013-07-01 00:25:00,
2013-06-30 17:30:00,89.7,55.0,29.96,SW,225,7.0,8.0,31,0.00,CLR,,0.00,WeatherDisplay:10.37,2013-07-01 00:30:00,
2013-06-30 17:35:00,88.5,54.9,29.96,SW,215,7.0,13.0,32,0.00,CLR,,0.00,WeatherDisplay:10.37,2013-07-01 00:35:00,
2013-06-30 17:40:00,87.5,54.0,29.96,SSW,208,1.0,11.0,32,0.00,CLR,,0.00,WeatherDisplay:10.37,2013-07-01 00:40:00,
2013-06-30 17:50:00,86.2,53.7,29.97,SSW,211,12.0,13.0,33,0.00,CLR,,0.00,WeatherDisplay:10.37,2013-07-01 00:50:00,
2013-06-30 18:00:00,85.1,53.6,29.98,SW,222,9.0,10.0,34,0.00,CLR,,0.00,WeatherDisplay:10.37,2013-07-01 01:00:00,
2013-06-30 18:05:00,83.8,52.5,29.98,SW,225,3.0,11.0,34,0.00,CLR,,0.00,WeatherDisplay:10.37,2013-07-01 01:05:00,
2013-06-30 18:10:00,83.0,53.3,29.99,SW,220,5.0,7.0,36,0.00,CLR,,0.00,WeatherDisplay:10.37,2013-07-01 01:10:00,
2013-06-30 18:20:00,82.2,52.6,30.01,SSW,206,0.0,5.0,36,0.00,CLR,,0.00,WeatherDisplay:10.37,2013-07-01 01:20:00,
2013-06-30 18:25:00,82.0,52.4,30.03,SSE,151,0.0,0.0,36,0.00,CLR,,0.00,WeatherDisplay:10.37,2013-07-01 01:25:00,
2013-06-30 18:30:00,82.0,52.4,30.05,East,100,0.0,0.0,36,0.00,CLR,,0.00,WeatherDisplay:10.37,2013-07-01 01:30:00,
2013-06-30 18:35:00,81.9,55.9,30.09,ENE,75,13.0,14.0,41,0.00,CLR,,0.00,WeatherDisplay:10.37,2013-07-01 01:35:00,
2013-06-30 18:40:00,80.2,56.9,30.11,NNE,28,12.0,12.0,45,0.00,CLR,,0.00,WeatherDisplay:10.37,2013-07-01 01:40:00,
2013-06-30 18:45:00,78.4,57.7,30.12,NE,39,5.0,8.0,49,0.14,RA,,0.14,WeatherDisplay:10.37,2013-07-01 01:45:00,
2013-06-30 18:50:00,77.2,58.7,30.13,NE,52,0.0,5.0,53,0.04,RA,,0.18,WeatherDisplay:10.37,2013-07-01 01:50:00,
2013-06-30 18:55:00,76.2,59.4,30.13,ENE,58,0.0,2.0,56,0.04,RA,,0.22,WeatherDisplay:10.37,2013-07-01 01:55:00,
2013-06-30 19:05:00,74.5,59.2,30.09,SW,216,2.0,9.0,59,0.00,RA,,0.26,WeatherDisplay:10.37,2013-07-01 02:05:00,
2013-06-30 19:10:00,73.1,58.8,30.08,SSW,204,5.0,9.0,61,0.02,RA,,0.28,WeatherDisplay:10.37,2013-07-01 02:10:00,
2013-06-30 19:20:00,70.9,58.1,30.07,SW,214,10.0,20.0,64,0.00,,,0.28,WeatherDisplay:10.37,2013-07-01 02:20:00,
2013-06-30 19:25:00,70.0,57.7,30.07,SW,221,15.0,17.0,65,0.00,CLR,,0.28,WeatherDisplay:10.37,2013-07-01 02:25:00,
2013-06-30 19:30:00,69.6,56.5,30.07,SW,230,3.0,8.0,63,0.00,CLR,,0.28,WeatherDisplay:10.37,2013-07-01 02:30:00,
2013-06-30 19:35:00,69.6,56.0,30.06,SW,220,3.0,4.0,62,0.00,CLR,,0.28,WeatherDisplay:10.37,2013-07-01 02:35:00,
2013-06-30 19:40:00,70.0,55.0,30.07,SW,221,1.0,3.0,59,0.00,CLR,,0.28,WeatherDisplay:10.37,2013-07-01 02:40:00,
2013-06-30 19:45:00,70.5,55.0,30.07,WSW,248,6.0,6.0,58,0.00,CLR,,0.28,WeatherDisplay:10.37,2013-07-01 02:45:00,
2013-06-30 19:50:00,70.9,55.8,30.07,SW,232,9.0,9.0,59,0.00,CLR,,0.28,WeatherDisplay:10.37,2013-07-01 02:50:00,
2013-06-30 19:55:00,71.2,55.7,30.07,SW,225,12.0,14.0,58,0.00,CLR,,0.28,WeatherDisplay:10.37,2013-07-01 02:55:00,
2013-06-30 20:00:00,71.4,55.4,30.07,SW,219,6.0,6.0,57,0.00,CLR,,0.28,WeatherDisplay:10.37,2013-07-01 03:00:00,
2013-06-30 20:05:00,71.8,55.3,30.08,SW,221,5.0,6.0,56,0.00,CLR,,0.28,WeatherDisplay:10.37,2013-07-01 03:05:00,
2013-06-30 20:10:00,72.1,55.1,30.07,SW,229,9.0,12.0,55,0.00,CLR,,0.28,WeatherDisplay:10.37,2013-07-01 03:10:00,
2013-06-30 20:20:00,71.9,54.9,30.06,SSW,205,12.0,12.0,55,0.00,CLR,,0.28,WeatherDisplay:10.37,2013-07-01 03:20:00,
2013-06-30 20:25:00,71.8,55.2,30.07,SSW,206,8.0,14.0,56,0.02,RA,,0.30,WeatherDisplay:10.37,2013-07-01 03:25:00,
2013-06-30 20:30:00,71.4,54.9,30.07,SSW,211,6.0,11.0,56,0.00,RA,,0.30,WeatherDisplay:10.37,2013-07-01 03:30:00,
2013-06-30 20:40:00,71.4,54.9,30.07,SW,222,10.0,12.0,56,0.00,CLR,,0.30,WeatherDisplay:10.37,2013-07-01 03:40:00,
2013-06-30 20:45:00,71.2,54.7,30.07,SW,221,15.0,16.0,56,0.00,CLR,,0.30,WeatherDisplay:10.37,2013-07-01 03:45:00,
2013-06-30 20:50:00,71.2,54.7,30.07,SW,224,13.0,16.0,56,0.00,CLR,,0.30,WeatherDisplay:10.37,2013-07-01 03:50:00,
2013-06-30 20:55:00,71.2,54.7,30.08,SW,219,7.0,14.0,56,0.00,CLR,,0.30,WeatherDisplay:10.37,2013-07-01 03:55:00,
2013-06-30 21:00:00,70.9,54.9,30.08,SSW,209,16.0,16.0,57,0.00,CLR,,0.30,WeatherDisplay:10.37,2013-07-01 04:00:00,
2013-06-30 21:05:00,70.9,54.9,30.08,SSW,212,21.0,21.0,57,0.00,CLR,,0.30,WeatherDisplay:10.37,2013-07-01 04:05:00,
2013-06-30 21:10:00,70.8,55.2,30.08,SW,235,9.0,21.0,58,0.00,CLR,,0.30,WeatherDisplay:10.37,2013-07-01 04:10:00,
2013-06-30 21:15:00,70.5,55.0,30.08,SW,221,13.0,18.0,58,0.00,CLR,,0.30,WeatherDisplay:10.37,2013-07-01 04:15:00,
2013-06-30 21:20:00,70.5,55.0,30.08,SSW,196,9.0,21.0,58,0.00,CLR,,0.30,WeatherDisplay:10.37,2013-07-01 04:20:00,
2013-06-30 21:25:00,70.5,55.0,30.09,SSW,202,7.0,9.0,58,0.00,CLR,,0.30,WeatherDisplay:10.37,2013-07-01 04:25:00,
2013-06-30 21:30:00,70.5,54.5,30.10,SW,232,6.0,16.0,57,0.00,CLR,,0.30,WeatherDisplay:10.37,2013-07-01 04:30:00,
2013-06-30 21:35:00,70.7,54.7,30.10,SW,234,0.0,4.0,57,0.00,CLR,,0.30,WeatherDisplay:10.37,2013-07-01 04:35:00,
2013-06-30 21:40:00,70.9,53.9,30.10,WSW,258,0.0,0.0,55,0.00,CLR,,0.30,WeatherDisplay:10.37,2013-07-01 04:40:00,
2013-06-30 21:50:00,71.4,53.9,30.08,WSW,242,0.0,8.0,54,0.00,CLR,,0.30,WeatherDisplay:10.37,2013-07-01 04:50:00,
2013-06-30 21:55:00,71.4,53.9,30.07,WSW,251,10.0,10.0,54,0.00,CLR,,0.30,WeatherDisplay:10.37,2013-07-01 04:55:00,
2013-06-30 22:00:00,71.8,54.7,30.06,WSW,240,7.0,7.0,55,0.00,CLR,,0.30,WeatherDisplay:10.37,2013-07-01 05:00:00,
2013-06-30 22:05:00,72.0,54.9,30.05,WSW,244,6.0,13.0,55,0.00,CLR,,0.30,WeatherDisplay:10.37,2013-07-01 05:05:00,
2013-06-30 22:10:00,72.0,54.4,30.04,WSW,255,6.0,6.0,54,0.00,CLR,,0.30,WeatherDisplay:10.37,2013-07-01 05:10:00,
2013-06-30 22:20:00,72.2,54.6,30.05,West,276,6.0,6.0,54,0.00,CLR,,0.30,WeatherDisplay:10.37,2013-07-01 05:20:00,
2013-06-30 22:25:00,72.3,54.2,30.05,WNW,287,3.0,3.0,53,0.00,CLR,,0.30,WeatherDisplay:10.37,2013-07-01 05:25:00,
2013-06-30 22:30:00,72.3,53.7,30.05,WNW,300,0.0,2.0,52,0.00,CLR,,0.30,WeatherDisplay:10.37,2013-07-01 05:30:00,
2013-06-30 22:40:00,72.7,54.0,30.05,WNW,297,1.0,2.0,52,0.00,CLR,,0.30,WeatherDisplay:10.37,2013-07-01 05:40:00,
2013-06-30 22:45:00,72.7,54.0,30.06,NW,306,0.0,2.0,52,0.00,CLR,,0.30,WeatherDisplay:10.37,2013-07-01 05:45:00,
2013-06-30 22:50:00,72.9,54.2,30.07,East,99,1.0,1.0,52,0.00,CLR,,0.30,WeatherDisplay:10.37,2013-07-01 05:50:00,
2013-06-30 22:55:00,72.8,54.1,30.07,East,92,0.0,1.0,52,0.00,CLR,,0.30,WeatherDisplay:10.37,2013-07-01 05:55:00,
2013-06-30 23:00:00,72.7,54.0,30.07,ENE,70,0.0,0.0,52,0.00,CLR,,0.30,WeatherDisplay:10.37,2013-07-01 06:00:00,
2013-06-30 23:05:00,72.9,54.2,30.07,ENE,68,0.0,0.0,52,0.00,CLR,,0.30,WeatherDisplay:10.37,2013-07-01 06:05:00,
2013-06-30 23:10:00,73.0,55.4,30.07,ESE,106,0.0,0.0,54,0.00,CLR,,0.30,WeatherDisplay:10.37,2013-07-01 06:10:00,
2013-06-30 23:20:00,72.7,55.1,30.07,SE,135,0.0,0.0,54,0.00,CLR,,0.30,WeatherDisplay:10.37,2013-07-01 06:20:00,
2013-06-30 23:25:00,72.5,54.9,30.08,SE,130,0.0,0.0,54,0.00,CLR,,0.30,WeatherDisplay:10.37,2013-07-01 06:25:00,
2013-06-30 23:30:00,72.3,55.2,30.09,East,95,1.0,1.0,55,0.00,CLR,,0.30,WeatherDisplay:10.37,2013-07-01 06:30:00,
2013-06-30 23:40:00,72.1,55.6,30.10,NE,56,0.0,0.0,56,0.00,CLR,,0.30,WeatherDisplay:10.37,2013-07-01 06:40:00,
2013-06-30 23:45:00,72.1,56.1,30.10,NNE,30,0.0,0.0,57,0.00,CLR,,0.30,WeatherDisplay:10.37,2013-07-01 06:45:00,
2013-06-30 23:50:00,72.0,56.4,30.10,North,357,0.0,0.0,58,0.00,CLR,,0.30,WeatherDisplay:10.37,2013-07-01 06:50:00,
2013-06-30 23:55:00,71.8,55.8,30.09,NNW,329,0.0,2.0,57,0.00,CLR,,0.30,WeatherDisplay:10.37,2013-07-01 06:55:00,